Flag for Austria Weather past 2 weeks in Neusiedl am See, Burgenland, Austria

Now
71 °F

Mild.


Feels Like: 77 °F
Forecast: 54 / 73 °F
Wind: 2 mph from Northeast

Location: Eisenstadt

Current Time: Apr 26, 2015 at 4:14:02 PM

Latest Report: Apr 26, 2015 at 3:00 PM


Visibility: N/A

Pressure: 29.79 "Hg

Humidity: 45%

Dew point: 49 °F

Location of Neusiedl am SeeLocation

Historic Weather in Neusiedl am See — Graph

°F

Neusiedl am See temperature yesterday

Maximum temperature yesterday: 75 °F (at 4:00 PM)
Minimum temperature yesterday: 46 °F (at 6:00 AM)
Average temperature yesterday: 60 °F

Past Weeks' High & Low Weather Summary

 TemperatureHumidityPressure
High81 °F (Apr 16, 2:00 PM)94% (Apr 17, 8:00 PM)30.42 "Hg (Apr 17, 8:00 PM)
Low34 °F (Apr 19, 2:00 AM)15% (Apr 16, 2:00 PM)29.79 "Hg (Apr 17, 5:00 PM)
Average57 °F52%30.09 "Hg
* Reported Apr 11 2:00 PM — Apr 26 2:00 PM, Neusiedl am See, Weather by CustomWeather, © 2015

Note: Actual official high and low records may vary slightly from our data, if they occured in-between our weather recording intervals... More about our weather records

Advertising

Neusiedl am See weather history for previous 24 hours

 ConditionsComfort  
Time TempWeatherWind HumidityBarometerVisibility
2:00 PM
Sun, Apr 26
69 °FOvercast.3 mph48%29.81 "Hg12 mi
1:00 PM68 °FMild.5 mph49%29.83 "HgN/A
12:00 PM69 °FMild.3 mph52%29.82 "HgN/A
11:00 AM68 °FOvercast.3 mph53%29.84 "Hg12 mi
10:00 AM67 °FMild.2 mph54%29.84 "HgN/A
9:00 AM63 °FMild.2 mph58%29.84 "HgN/A
8:00 AM56 °FOvercast.1 mph71%29.84 "Hg12 mi
7:00 AM53 °FPartly sunny.1 mph81%29.84 "Hg12 mi
6:00 AM51 °FScattered clouds.1 mph85%29.83 "Hg12 mi
4:00 AM53 °FCool.2 mph83%29.82 "HgN/A
3:00 AM54 °FCool.3 mph80%29.82 "HgN/A
2:00 AM55 °FClear.3 mph77%29.82 "Hg12 mi
1:00 AM55 °FCool.3 mph75%29.83 "HgN/A
12:00 AM59 °FCool.3 mph66%29.82 "HgN/A
10:00 PM
Sat, Apr 25
59 °FCool.1 mph64%29.83 "HgN/A
9:00 PM61 °FRefreshingly cool.2 mph59%29.83 "HgN/A
8:00 PM67 °FPassing clouds.3 mph44%29.80 "Hg16 mi
7:00 PM71 °FPassing clouds.5 mph34%29.79 "Hg16 mi
6:00 PM74 °FMild.7 mph29%29.79 "HgN/A
5:00 PM74 °FPassing clouds.7 mph29%29.80 "Hg16 mi
4:00 PM75 °FMild.8 mph30%29.81 "HgN/A
Weather by CustomWeather, © 2015

See weather overviewHow to use our weather pages